Regional Weather Roundup
Issued by NWS

Home | Current Version | Previous Version | Graphics & Text | Print | Product List | Glossary On
Versions: 1 2 3 4 5 6 7 8 9 10 11 12 13 14 15 16 17 18 19 20 21 22 23 24 25 26 27 28 29 30 31 32 33 34 35 36 37 38 39 40 41 42 43 44 45 46 47 48 49 50
000
ASUS43 KOAX 280502
RWRNE

WEATHER ROUNDUP FOR NEBRASKA
NATIONAL WEATHER SERVICE OMAHA NE
1200 AM CDT SAT MAR 28 2015

NOTES: SATELLITE DATA IS BEING USED TO AUGMENT CLOUD COVER ABOVE
       12000 FEET.
       "FAIR" INDICATES FEW OR NO CLOUDS BELOW 12,000 FEET WITH NO
       SIGNIFICANT WEATHER AND/OR OBSTRUCTIONS TO VISIBILITY.

  * THESE STATIONS DO NOT REPORT WEATHER SUCH AS RAIN...SNOW OR FOG.

NEZ001>004-019>022-054>056-280600-
NEBRASKA PANHANDLE

CITY           SKY/WX    TMP DP  RH WIND       PRES   REMARKS
SCOTTSBLUFF    PTCLDY    45  32  60 NW5       30.03R
ALLIANCE       CLOUDY    43  32  65 NW6       30.00F
CHADRON        CLOUDY    42  33  70 W6        29.98S
KIMBALL        CLEAR     40  27  59 W7        30.05S
SIDNEY         CLEAR     37  30  75 W6        30.04S WCI  32
$$

NEZ057>060-069>072-079>082-280600-
SOUTHWEST NEBRASKA

CITY           SKY/WX    TMP DP  RH WIND       PRES   REMARKS
NORTH PLATTE   PTCLDY    40  33  76 CALM      29.98S
IMPERIAL       PTCLDY    47  32  56 W3        30.00R
MCCOOK         MOCLDY    45  34  65 NE3       29.98R
$$

NEZ005>010-023>029-035>040-094-280600-
NORTH CENTRAL NEBRASKA

CITY           SKY/WX    TMP DP  RH WIND       PRES   REMARKS
VALENTINE      CLEAR     39  31  72 N3        29.95R
AINSWORTH      CLOUDY    43  34  68 SW3       29.95R
BROKEN BOW     CLEAR     34  29  82 CALM      29.96S
ORD            PTCLDY    34  24  67 SE5       29.98S WCI  30
$$

NEZ041-046>049-061>064-073>077-083>087-280600-
SOUTH CENTRAL NEBRASKA

CITY           SKY/WX    TMP DP  RH WIND       PRES   REMARKS
GRAND ISLAND   PTCLDY    33  23  66 S12       30.01F WCI  24
HASTINGS       PTCLDY    36  24  62 S8        29.99F WCI  30
HEBRON         CLOUDY    35  24  63 E5        30.04F WCI  31
KEARNEY *      CLOUDY    37  25  60 S9        29.99S WCI  31
$$

NEZ011>018-030>034-042>045-280600-
NORTHEAST NEBRASKA

CITY           SKY/WX    TMP DP  RH WIND       PRES   REMARKS
NORFOLK        CLOUDY    33  26  75 SE14      30.02F WCI  23
ALBION         CLOUDY    34  26  73 SE7       30.01S WCI  28
BLAIR          CLOUDY    36  23  60 SE9       30.07F WCI  29
COLUMBUS *     CLOUDY    34  21  60 SE7       30.06F WCI  28
TEKAMAH        CLOUDY    36  22  56 SE10      30.09F WCI  28
$$

NEZ050>053-065>068-078-088>093-280600-
SOUTHEAST NEBRASKA

CITY           SKY/WX    TMP DP  RH WIND       PRES   REMARKS
LINCOLN        CLOUDY    36  22  56 SE10      30.08F WCI  28
OMAHA EPPLEY   CLOUDY    37  20  50 SE9       30.09F WCI  30
FALLS CITY     CLOUDY    36  24  62 SE7       30.10F WCI  30
NEBRASKA CITY  CLOUDY    36  19  51 SE8       30.10S WCI  30
PLATTSMOUTH    CLOUDY    35  19  51 SE12      30.09S WCI  27
$$

NEZ044-045-051>053-067-280600-
OMAHA AREA

CITY           SKY/WX    TMP DP  RH WIND       PRES   REMARKS
OMAHA EPPLEY   CLOUDY    37  20  50 SE9       30.09F WCI  30
BLAIR          CLOUDY    36  23  60 SE9       30.07F WCI  29
OFFUTT AFB     CLOUDY    36  22  56 SE7       30.08F WCI  30
PLATTSMOUTH    CLOUDY    35  19  51 SE12      30.09S WCI  27
WAHOO          CLOUDY    35  24  65 SE8       30.07F WCI  28
$$


USA.gov is the U.S. government's official web portal to all federal, state and local government web resources and services.